GW0118 Weather Reports


time (UTC)temp
C
wind
direction
speed
KPH
gust
KPH
rain 1hr
cm
rain 24hr
cm
rain mn
cm
humidity
%
barometer
mb
20260904160105 33 31 11.3 27.4 0.00 0.00 0.00 19 1025.3
20260904154600 33 15 11.3 20.9 0.00 0.00 0.00 19 1025.3
20260904153115 33 342 11.3 25.7 0.00 0.00 0.00 19 1025.5
20260904151603 33 352 19.3 35.4 0.00 0.00 0.00 19 1025.6
20260904144602 33 66 17.7 32.2 0.00 0.00 0.00 19 1025.6
20260904143103 33 32 27.4 43.5 0.00 0.00 0.00 19 1025.8
20260904141559 33 25 22.5 35.4 0.00 0.00 0.00 18 1026.0
20260904140104 33 45 20.9 33.8 0.00 0.00 0.00 18 1025.9
20260904134603 34 21 17.7 33.8 0.00 0.00 0.00 18 1026.0
20260904133114 35 342 14.5 24.1 0.00 0.00 0.00 18 1026.0
20260904131600 34 28 17.7 29.0 0.00 0.00 0.00 18 1025.9
20260904130105 34 197 8.0 17.7 0.00 0.00 0.00 18 1026.0
20260904124611 33 58 6.4 14.5 0.00 0.00 0.00 18 1026.2
20260904123115 33 344 9.7 16.1 0.00 0.00 0.00 18 1026.4
20260904121605 33 280 3.2 16.1 0.00 0.00 0.00 19 1026.8
20260904120107 32 277 4.8 14.5 0.00 0.00 0.00 19 1026.9
20260904114602 32 0 1.6 11.3 0.00 0.00 0.00 19 1027.1
20260904113107 32 340 1.6 16.1 0.00 0.00 0.00 19 1027.2
20260904111609 32 304 4.8 14.5 0.00 0.00 0.00 20 1027.4
20260904110109 31 307 6.4 14.5 0.00 0.00 0.00 20 1027.4
20260904104603 31 11 8.0 14.5 0.00 0.00 0.00 20 1027.5
20260904103101 31 9 9.7 12.9 0.00 0.00 0.00 20 1027.6
20260904101616 31 285 4.8 9.7 0.00 0.00 0.00 19 1027.6
20260904100104 31 40 0.0 3.2 0.00 0.00 0.00 22 1027.7
20260904094601 30 0 1.6 3.2 0.00 0.00 0.00 22 1027.8
20260904093117 28 0 0.0 0.0 0.00 0.00 0.00 24 1027.8
20260904091604 27 0 0.0 1.6 0.00 0.00 0.00 28 1027.8
20260904090104 25 0 0.0 0.0 0.00 0.00 0.00 32 1027.6
20260904084602 24 0 0.0 1.6 0.00 0.00 0.00 39 1027.6
20260904083110 22 0 0.0 1.6 0.00 0.00 0.00 41 1027.6
20260904081602 20 52 0.0 1.6 0.00 0.00 0.00 44 1027.6
20260904080105 19 0 0.0 1.6 0.00 0.00 0.00 47 1027.4
20260904074603 17 53 0.0 1.6 0.00 0.00 0.00 49 1027.4
20260904073105 17 68 0.0 3.2 0.00 0.00 0.00 49 1027.4
20260904071600 17 0 0.0 0.0 0.00 0.00 0.00 48 1027.4
20260904070059 15 0 0.0 0.0 0.00 0.00 0.00 52 1027.4
20260904064605 14 0 0.0 0.0 0.00 0.00 0.00 54 1027.4
20260904063103 13 0 0.0 1.6 0.00 0.00 0.00 55 1027.3
20260904061615 13 0 0.0 1.6 0.00 0.00 0.00 57 1027.3
20260904060103 12 0 0.0 1.6 0.00 0.00 0.00 58 1027.1
20260904054608 12 0 0.0 1.6 0.00 0.00 0.00 57 1027.0
20260904053106 12 0 0.0 0.0 0.00 0.00 0.00 56 1026.9
20260904051605 12 0 0.0 0.0 0.00 0.00 0.00 55 1027.0
20260904050104 13 0 0.0 0.0 0.00 0.00 0.00 53 1027.2
20260904044611 13 0 0.0 1.6 0.00 0.00 0.00 52 1027.2
20260904043103 13 0 0.0 1.6 0.00 0.00 0.00 53 1027.3
20260904041603 13 0 0.0 1.6 0.00 0.00 0.00 52 1027.2
20260904034608 13 0 0.0 1.6 0.00 0.00 0.00 49 1027.2
20260904033111 13 0 0.0 0.0 0.00 0.00 0.00 48 1027.2
20260904031604 14 0 0.0 0.0 0.00 0.00 0.00 47 1027.4
20260904024614 14 0 0.0 1.6 0.00 0.00 0.00 45 1027.6
20260904023104 15 0 0.0 0.0 0.00 0.00 0.00 45 1027.6
20260904021603 15 0 0.0 1.6 0.00 0.00 0.00 44 1027.6
20260904020101 15 0 0.0 0.0 0.00 0.00 0.00 42 1027.7
20260904014608 15 0 0.0 1.6 0.00 0.00 0.00 42 1027.7
20260904013103 16 0 0.0 1.6 0.00 0.00 0.00 40 1027.8
20260904011614 16 0 0.0 0.0 0.00 0.00 0.00 40 1027.8
20260904010112 16 0 0.0 0.0 0.00 0.00 0.00 39 1027.8
20260904004603 16 0 0.0 1.6 0.00 0.00 0.00 38 1027.9
20260904003110 17 0 0.0 3.2 0.00 0.00 0.00 36 1027.9
20260904001604 17 0 0.0 1.6 0.00 0.00 0.00 35 1028.0
20260903234603 18 0 0.0 1.6 0.00 0.00 0.00 33 1028.0
20260903233101 18 0 0.0 0.0 0.00 0.00 0.00 33 1028.1
20260903231601 18 0 0.0 1.6 0.00 0.00 0.00 31 1028.1
20260903224603 19 89 0.0 0.0 0.00 0.00 0.00 29 1027.8
20260903223104 20 147 0.0 4.8 0.00 0.00 0.00 29 1027.8
20260903221604 20 137 0.0 8.0 0.00 0.00 0.00 28 1027.8
20260903220124 19 58 6.4 12.9 0.00 0.00 0.00 30 1027.8
20260903214605 21 0 0.0 1.6 0.00 0.00 0.00 28 1027.7
20260903213104 21 0 0.0 4.8 0.00 0.00 0.00 26 1027.7
20260903211619 22 0 0.0 0.0 0.00 0.00 0.00 28 1027.8
20260903210110 22 0 0.0 0.0 0.00 0.00 0.00 26 1027.7
20260903204603 23 0 0.0 1.6 0.00 0.00 0.00 25 1027.7
20260903203133 25 252 0.0 4.8 0.00 0.00 0.00 22 1027.6
20260903201603 26 0 0.0 0.0 0.00 0.00 0.00 22 1027.4
20260903200113 27 156 0.0 4.8 0.00 0.00 0.00 17 1027.2
20260903194605 28 135 0.0 4.8 0.00 0.00 0.00 15 1027.1
20260903193106 28 0 0.0 1.6 0.00 0.00 0.00 15 1027.0
20260903191605 30 0 0.0 8.0 0.00 0.00 0.00 14 1026.7
20260903190104 30 1 9.7 17.7 0.00 0.00 0.00 13 1026.5
20260903184559 30 312 4.8 11.3 0.00 0.00 0.00 15 1026.5
20260903183104 31 291 3.2 11.3 0.00 0.00 0.00 16 1026.4
20260903181558 32 273 3.2 9.7 0.00 0.00 0.00 19 1026.2
20260903180106 33 261 6.4 12.9 0.00 0.00 0.00 19 1026.1
20260903174601 33 260 6.4 12.9 0.00 0.00 0.00 18 1025.9
20260903173109 33 237 4.8 22.5 0.00 0.00 0.00 17 1026.0
20260903171616 34 259 4.8 8.0 0.00 0.00 0.00 17 1026.0
20260903170104 34 251 1.6 14.5 0.00 0.00 0.00 17 1025.9
20260903164640 34 267 1.6 17.7 0.00 0.00 0.00 17 1025.9
20260903163103 33 269 9.7 17.7 0.00 0.00 0.00 15 1025.8
20260903161600 33 219 14.5 24.1 0.00 0.00 0.00 18 1025.9